Location: Brantford
(43.1330°N, 80.2670°W)
Time: 06:11:44
(UTC-05:00)

ISS - Visible Passes

Search period start: 28 November 2020 00:00
Search period end: 08 December 2020 00:00
Orbit: 418 x 420 km, 51.6° (Epoch: 28 November)

Date Brightness Start Highest point End Pass type
(mag) Time Alt. Az. Time Alt. Az. Time Alt. Az.
28 Nov -1.9 18:26:04 10° NW 18:28:34 19° N 18:28:46 19° N visible
29 Nov -1.9 17:38:15 10° WNW 17:40:50 20° N 17:43:07 11° NE visible
29 Nov -0.8 19:15:42 10° NW 19:16:04 12° NW 19:16:04 12° NW visible
30 Nov -1.9 18:28:08 10° NW 18:30:26 20° N 18:30:26 20° N visible
01 Dec -1.9 17:40:28 10° NW 17:42:58 19° N 17:44:50 13° NE visible
01 Dec -0.8 19:17:18 10° NW 19:17:47 13° NW 19:17:47 13° NW visible
02 Dec -2.3 18:29:49 10° NW 18:32:13 26° N 18:32:13 26° N visible
03 Dec -2.3 17:42:16 10° NW 17:45:01 23° NNE 17:46:44 16° NE visible
03 Dec -1.0 19:18:52 10° NW 19:19:42 17° NW 19:19:42 17° NW visible
04 Dec -3.4 18:31:19 10° NW 18:34:18 48° N 18:34:18 48° N visible
05 Dec -3.0 17:43:48 10° NW 17:46:56 35° NNE 17:49:03 17° E visible
05 Dec -1.2 19:20:36 10° WNW 19:22:02 21° W 19:22:02 21° W visible
06 Dec -3.5 18:32:54 10° WNW 18:36:14 65° SW 18:36:59 47° SSE visible
07 Dec -3.9 17:45:16 10° NW 17:48:38 77° NNE 17:51:59 10° ESE visible
07 Dec -0.8 19:23:08 10° W 19:25:02 14° SW 19:25:14 14° SW visible
